Find Siwei Gaojing 2-06

NORAD ID: 68378 Int'l Des: 2026-062 Owner: SIWEI Country: CN operational
LEOCIRCULARRETROGRADESSO

实时位置

正在加载3D地球...

关于 Siwei Gaojing 2-06

正在加载描述...

即将过境

Passes for default location (London). Set your location on the main map for personalized predictions.

高度历史

Loading altitude history...

两行轨道根数

1 68378U 26062B 26130.42195316 .00001212 00000-0 59935-4 0 9992
2 68378 97.4389 138.2702 0001346 92.6502 267.4887 15.19719854 6913
Epoch: May 10, 2026 • Age: 13 hours

当前状态

高度 519.3 km
速度 7.61 km/s
星下点 82.48°N, 177.96°W
发射日期 Mar 25, 2026
运行时间 0.1 years
类型 other

技术详情

分类 Payload
质量 600.00 kg
干质量 500.00 kg
总质量 600.00 kg
长度 0.50 m
直径 0.50 m
跨度 0.50 m
形状 Box
制造商 DFHZ
平台类型 Siwei
阶段状态 In Orbit
所有者/国家 SIWEI/CN

Most Searched